Location: Newark
(51.3318°N, 0.0053°E)
Time: 07:41:45
(UTC+00:00)

CAS-6 - Pass Details

Date: 11 July 2022
Orbit: 613 x 634 km, 97.9° (Epoch: 17 August)

Event Time Altitude Azimuth Distance (km) Brightness Sun altitude
Exits shadow 21:31:01 12° 139° (SE) 1,851 ? -9.2°
Maximum altitude 21:34:46 44° 68° (ENE) 860 ? -9.5°
Drops below altitude 10° 21:38:53 10° 357° (N) 1,992 ? -9.9°
Sets 21:41:08 0° 351° (N) 2,900 ? -10.1°
